Regional Weather Roundup
Issued by NWS

Home | Current Version | Previous Version | Text Only | Print | Product List | Glossary On
Versions: 1 2 3 4 5 6 7 8 9 10 11 12 13 14 15 16 17 18 19 20 21 22 23 24 25 26 27 28 29 30 31 32 33 34 35 36 37 38 39 40 41 42 43 44 45 46 47 48 49 50
000
ASUS44 KBMX 231110
RWRAL

ALABAMA REGIONAL WEATHER ROUNDUP
NATIONAL WEATHER SERVICE BIRMINGHAM AL
600 AM CDT SAT MAY 23 2015

NOTE: "FAIR" INDICATES FEW OR NO CLOUDS BELOW 12,000 FEET
WITH NO SIGNIFICANT WEATHER AND/OR OBSTRUCTIONS TO VISIBILITY.

THE REMARK "TC" DENOTES TEMPERATURE IN DEGREES CELSIUS.

ALZ001>011-014-016>018-020-231200-
NORTH ALABAMA

CITY           SKY/WX    TMP DP  RH WIND       PRES   REMARKS
MUSCLE SHOALS  CLOUDY    56  51  84 CALM      30.31R
HUNTSVILLE     MOCLDY    55  49  80 CALM      30.31R
DECATUR        PTCLDY    50  48  93 CALM      30.32R
HALEYVILLE     FAIR      54  51  89 CALM      30.32R
GADSDEN        CLEAR    N/A N/A N/A CALM      30.30R
$$

ALZ012-013-022-023-030>036-040>044-231200-
WEST CENTRAL ALABAMA

CITY           SKY/WX    TMP DP  RH WIND       PRES   REMARKS
TUSCALOOSA     CLEAR     54  51  90 NW5       30.27R
$$

ALZ015-024>027-033>036-040>044-231200-
CENTRAL ALABAMA

CITY           SKY/WX    TMP DP  RH WIND       PRES   REMARKS
BIRMINGHAM     PTCLDY    60  47  61 E7        30.30R
MONTGOMERY     CLEAR     61  56  83 NE5       30.26R
SHELBY CO ARPT CLEAR     59  50  72 VRB3      30.28R
MAXWELL AFB    CLEAR     60  56  89 N5        30.26R
GREENVILLE     FAIR      58  53  84 CALM      30.25R
$$

ALZ019-021-028-029-037-038-045>048-231200-
EAST CENTRAL ALABAMA

CITY           SKY/WX    TMP DP  RH WIND       PRES   REMARKS
ANNISTON       CLEAR     56  49  77 NE6       30.31R
ALEXANDER CITY CLEAR     55  49  82 CALM      30.30R
AUBURN         CLEAR     61  52  72 E6        30.30R
$$

ALZ051>064-231200-
SOUTHWEST ALABAMA

CITY           SKY/WX    TMP DP  RH WIND       PRES   REMARKS
MOBILE         MOCLDY    69  58  67 N3        30.23R
BROOKLEY FIELD PTCLDY    69  59  70 NE5       30.23R
EVERGREEN      CLEAR     56  55  97 CALM      30.24R
$$

ALZ049-050-065>069-231200-
SOUTHEAST ALABAMA

CITY           SKY/WX    TMP DP  RH WIND       PRES   REMARKS
DOTHAN         CLEAR     64  59  83 E7        30.28R
OZARK          CLEAR     58  56  91 NE6       30.24R
TROY           CLEAR     57  55  93 CALM      30.26R
EUFAULA        FAIR      64  60  87 NE5       30.27R
$$


USA.gov is the U.S. government's official web portal to all federal, state and local government web resources and services.